Weather in South Tarawa

Kiribati     1°21′52″N   173°09′20″E
temp.,
°C
wind,
m/s
gust,
m/s
humid.,
%
clouds,
%
prec.,
mm/h
press.,
hPa
HPBL,
m
11 may, tue
tue1100:00+29e810755 0.0 10081086
03:00+28e8107763 0.1 10071022
06:00+28e897927 0.8 1008876
09:00+28e797815 0.4 1009907
12:00+28e898099 3.4 1008734
15:00+28ese7876100 1.1 1006966
18:00+28e8977100 2.3 1007910
21:00+28e797758 0.3 1010880
12 may, wed
wed1200:00+28e79775 0.9 1009945
03:00+28e8978100 0.8 1008899
06:00+28e897767 1.1 1009970
09:00+28e79768 0.0 10111009
12:00+28e787476 0.2 10091020
15:00+29e7972100 0.0 10071120
18:00+28e677452 0.1 1008909
21:00+28e677792 0.4 1010694
13 may, thu
thu1300:00+28ene6777100 0.7 1010786
03:00+28ene6777100 0.4 1008810
06:00+28ene6775100 0.5 1009935
09:00+28ene6775100 0.0 1010901
12:00+28ene567697 0.1 1009859
15:00+28ene5675100 0.0 1006875
18:00+29e567583 0.1 1008898
21:00+28e567659 0.1 1009801
14 may, fri
fri1400:00+28e56775 0.6 1009668
03:00+27e557884 0.7 1007568
06:00+28e557612 2.1 1009752
09:00+28ese557712 0.3 1010780
12:00+28ese557641 0.3 1009814
15:00+28se567659 0.0 1006876
18:00+29se567385 0.4 1008947
21:00+29ese6773100 0.3 1009908
15 may, sat
sat1500:00+28ese557670 0.3 1009816
03:00+28se5678100 0.5 1008786
06:00+28se567753 0.8 1009763
09:00+28ese567821 1.2 1011619
12:00+28ese56767 1.6 1009814
15:00+28ese56788 0.2 1007795
18:00+29e6776100 0.3 1008902
21:00+28e6777100 0.2 1009903